This demonstration page uses our WeatherBlox Daily Observations layout. Learn more.

Left ArrowRight Arrow

40.92501, -98.34201

Hourly Observations for July 22, 2021

Temp ( °F °C ) Dew Point ( °F °C ) Humidity (%) Winds ( mph kmh ) Pressure ( in mb ) Visibility ( mi km ) Precip ( " mm )
12:53 am 00:53 Clear 71 21.7 61 16.1 71 71 S 10 17 30.04 1017 7 11 0.00 0.00
1:53 am 01:53 Hazy 70 21.1 61 16.1 73 73 S 10 17 30.04 1017 6 10 0.00 0.00
2:53 am 02:53 Hazy 68 20 60 15.6 76 76 S 9 15 30.03 1017 6 10 0.00 0.00
3:53 am 03:53 Hazy 68 20 59 15 73 73 S 12 19 30.03 1017 6 10 0.00 0.00
4:53 am 04:53 Hazy 68 20 59 15 73 73 S 10 17 30.02 1017 6 10 0.00 0.00
5:53 am 05:53 Hazy 70 21.1 59 15 68 68 S 13 20 30.03 1017 6 10 0.00 0.00
6:53 am 06:53 Hazy 67 19.4 59 15 76 76 S 12 19 30.04 1017 4 6 0.00 0.00
6:59 am 06:59 Hazy 68 20 59 15 73 73 S 12 19 30.01 1016 6 10 0.00 0.00
7:53 am 07:53 Hazy 71 21.7 60 15.6 68 68 S 12 19 30.04 1017 6 10 0.00 0.00
8:53 am 08:53 Hazy 75 23.9 60 15.6 60 60 SSW 17 28 30.05 1018 5 8 0.00 0.00
9:53 am 09:53 Hazy 78 25.6 61 16.1 56 56 S 17 28 30.05 1018 5 8 0.00 0.00
10:53 am 10:53 Sunny 82 27.8 62 16.7 51 51 S 18 30 30.03 1017 7 11 0.00 0.00
11:53 am 11:53 Sunny 85 29.4 65 18.3 51 51 S 14 22 30.03 1017 7 11 0.00 0.00
12:53 pm 12:53 Sunny 87 30.6 65 18.3 48 48 S 16 26 30.02 1017 8 13 0.00 0.00
1:53 pm 13:53 Sunny 88 31.1 67 19.4 50 50 S 14 22 30.01 1016 8 13 0.00 0.00
2:53 pm 14:53 Sunny 89 31.7 66 18.9 47 47 S 17 28 30.00 1016 9 14 0.00 0.00
3:53 pm 15:53 Sunny 90 32.2 66 18.9 45 45 S 14 22 29.99 1016 9 14 0.00 0.00
4:53 pm 16:53 Sunny 90 32.2 65 18.3 44 44 S 17 28 29.98 1015 10 16 0.00 0.00
5:53 pm 17:53 Sunny 90 32.2 65 18.3 44 44 S 14 22 29.96 1015 10 16 0.00 0.00
6:53 pm 18:53 Sunny 88 31.1 67 19.4 50 50 SSE 12 19 29.94 1014 10 16 0.00 0.00
7:53 pm 19:53 Sunny 85 29.4 66 18.9 53 53 SSE 9 15 29.94 1014 10 16 0.00 0.00
8:53 pm 20:53 Sunny 80 26.7 68 20 67 67 SSE 8 13 29.95 1014 9 14 0.00 0.00
9:53 pm 21:53 Clear 79 26.1 66 18.9 65 65 SSE 12 19 29.96 1015 9 14 0.00 0.00
10:53 pm 22:53 Clear 78 25.6 63 17.2 60 60 S 13 20 29.98 1015 8 13 0.00 0.00
11:53 pm 23:53 Clear 76 24.4 63 17.2 64 64 S 12 19 29.98 1015 8 13 0.00 0.00

Powered by AerisWeather